Location: Brompton
(51.4000°N, 0.5333°E)
Time: 04:12:31
(UTC+00:00)

USA 215 - Pass Details

Date: 30 September 2021
Orbit: 1093 x 1114 km, 123.0° (Epoch: 14 October)

Event Time Altitude Azimuth Distance (km) Brightness Sun altitude
Exits shadow 22:36:18 12° 261° (W) 2,813 5.5 -39.5°
Drops below altitude 10° 22:37:14 10° 269° (W) 2,955 5.7 -39.6°
Sets 22:41:17 0° 294° (WNW) 3,923 6.7 -39.8°
